Presure
232 152 235 234 240 133 243 245 237 247 239 233 218 209 197 213 207 202 204 198 190 174 159 205 204 191 198 178 176 185 167 165 166 162 150 158 164 147 161 161 151 127 145 143 145 149 152
217 232 176 229 159 184 234 236 237 232 231 211 210 197 206 203 210 200 206 150 129 141 210 201 184 193 184 179 189 171 165 188 165 168 145 178 139 117 141 136 140 125 118 164 152 157 151
226 223 128 225 229 221 135 227 222 217 210 202 194 198 211 202 198 208 198 124 125 222 208 191 192 197 183 186 180 164 184 162 168 157 178 139 129 139 131 134 169 144 154 139 140 106 122
208 219 214 215 196 132 178 208 198 197 200 197 221 203 201 195 204 217 162 126 174 163 206 190 193 192 182 192 172 168 163 163 173 178 152 169 160 143 133 129 139 132 133 165 153 148 105
177 132 143 206 164 175 172 201 195 200 202 201 200 198 194 206 217 196 182 143 132 161 200 192 194 193 180 188 166 177 178 168 166 181 160 154 131 141 136 149 138 125 158 159 133 164 159
232 221 190 190 163 127 187 193 204 193 203 206 193 195 215 221 190 187 181 141 168 197 133 197 192 194 180 186 187 169 174 163 167 160 181 149 152 147 134 131 135 126 162 164 160 159 144
198 218 178 118 207 199 133 143 192 190 207 212 197 216 198 189 185 182 183 187 144 184 134 135 189 196 182 187 186 169 180 174 170 154 174 151 178 146 129 134 137 168 163 139 122 165 166
195 221 180 131 128 193 191 183 131 183 207 196 206 208 192 187 185 173 188 179 160 194 170 192 191 196 180 183 188 169 184 171 172 164 174 150 140 147 130 169 167 167 121 146 125 121 163
199 195 217 162 124 158 147 156 168 157 191 210 200 207 190 184 185 181 184 215 200 192 221 141 187 198 184 184 191 173 178 178 173 168 164 167 157 152 147 142 170 174 121 108 122 112 142
194 200 195 202 228 206 200 155 200 164 192 146 200 206 196 184 182 186 173 186 237 221 219 208 179 194 194 181 189 189 173 175 176 174 183 163 163 161 147 109 146 127 113 112 111 121 121
204 194 196 193 187 234 184 216 162 209 198 206 131 157 206 188 182 183 183 183 175 205 217 212 196 189 192 189 181 194 192 177 181 177 169 171 159 153 150 156 140 140 167 104 170 132 129
204 202 190 194 193 184 215 160 222 210 204 145 215 207 132 202 192 183 182 177 181 194 181 211 207 186 196 194 192 184 191 187 185 182 184 167 172 169 156 154 150 143 149 144 113 137 146
201 226 213 201 187 195 187 200 194 216 223 215 210 151 208 172 129 203 185 182 178 175 179 191 205 204 183 197 196 186 180 184 185 183 182 185 181 175 174 170 168 160 167 128 161 171 109
211 215 202 210 207 192 189 195 185 203 191 222 219 228 212 146 197 192 151 202 185 184 178 175 183 210 205 189 193 203 188 185 185 187 188 179 183 182 177 177 182 174 174 169 166 147 150
194 206 208 196 213 221 215 193 191 192 187 200 210 214 209 226 139 201 203 206 206 200 187 188 183 178 178 205 206 193 197 201 192 185 193 190 192 186 184 180 181 185 181 176 179 186 183
200 195 193 201 206 203 208 214 217 195 190 191 193 196 203 210 212 208 212 228 171 196 211 204 154 188 184 182 186 199 209 200 191 196 202 199 201 192 189 191 188 183 185 185 189 191 186
189 207 200 204 214 175 200 213 207 213 223 214 189 194 193 192 195 202 214 216 206 223 228 201 183 189 199 188 186 183 185 188 197 205 206 200 202 201 203 197 195 193 195 191 192 195 196
210 207 209 197 167 200 211 213 217 197 214 215 225 210 212 219 220 103 196 203 209 196 222 205 212 226 227 202 205 197 190 185 135 213 189 189 203 99 77 194 196 196 196 194 197 203 203
225 210 212 214 220 209 215 208 212 213 225 190 186 188 226 230 216 214 222 227 203 198 199 205 216 225 211 210 223 214 206 199 198 199 198 196 210 209 204 202 118 116 199 203 202 207 211
223 214 219 215 217 226 199 212 219 199 229 178 233 224 228 213 291 284 294 282 226 230 229 220 204 203 205 213 226 217 203 203 198 198 199 204 205 204 205 200 198 206 206 203 197 188 182
227 224 229 225 221 233 228 238 230 228 220 219 229 224 227 259 255 265 277 280 289 226 212 233 231 233 242 232 211 205 210 216 225 224 214 216 211 210 212 232 204 207 207 225 228 228 192
233 225 221 222 222 229 225 229 229 223 218 215 219 219 210 217 225 228 246 250 263 271 283 286 288 225 216 224 225 234 240 218 211 203 200 209 216 231 233 228 229 229 225 228 73 224 226
240 238 234 228 227 230 221 226 219 218 223 224 228 227 214 232 218 221 238 231 234 237 234 251 263 271 281 289 294 239 257 207 229 242 224 215 208 203 204 134 205 201 209 209 206 125 204
237 235 231 225 225 225 224 219 218 217 213 222 224 226 221 230 232 233 231 233 234 240 237 242 246 244 245 251 254 265 276 269 252 228 260 235 235 227 225 212 209 210 209 209 206 203 200
244 246 257 242 219 216 220 213 225 230 240 231 231 234 236 230 241 272 300 322 328 328 325 344 265 253 252 254 246 240 243 246 256 272 271 275 277 276 255 228 231 224 209 221 223 220 214
234 233 231 209 209 230 233 230 219 237 220 240 244 260 291 292 284 284 366 360 353 351 484 334 505 485 364 359 268 250 254 253 254 242 243 248 261 267 265 270 267 262 220 262 268 225 228
220 221 225 228 227 227 224 225 230 241 235 243 281 276 283 296 287 317 343 333 327 430 453 480 482 473 456 434 400 391 395 300 254 251 250 250 244 242 245 240 236 248 257 260 261 258 258
223 223 224 224 227 237 238 234 230 240 244 279 276 273 266 290 334 331 331 316 329 438 411 456 456 450 439 426 407 377 370 365 381 378 329 254 248 246 246 246 246 247 245 243 244 243 242
221 217 221 228 229 227 228 230 236 261 278 281 271 263 283 306 333 329 314 311 374 409 393 396 430 431 427 422 410 392 373 357 359 353 372 375 367 348 342 260 253 249 246 244 244 243 242
Wind_Speed
10 21 8 8 9 24 16 19 22 25 27 29 30 30 30 29 27 28 27 28 28 28 27 38 38 35 35 33 34 36 34 33 32 36 33 36 33 35 30 32 30 34 32 34 37 39 36
15 10 18 9 28 16 15 18 20 24 27 29 29 31 29 29 27 28 28 28 27 27 40 39 34 38 37 36 37 39 36 37 39 40 37 35 38 34 33 34 37 36 35 32 37 35 37
14 13 26 11 12 15 24 19 22 25 28 29 30 29 29 29 29 29 31 31 30 40 44 37 39 41 39 40 42 39 40 40 40 40 41 40 40 38 41 39 35 38 40 37 39 28 36
19 16 18 18 19 24 20 24 26 27 28 28 31 29 29 30 30 32 33 33 32 30 46 40 42 43 40 42 43 43 43 43 42 42 42 44 42 40 42 42 39 41 39 37 42 39 34
24 29 29 21 23 21 24 27 28 28 28 29 30 30 31 32 34 33 35 33 34 36 47 44 46 47 41 44 44 46 46 47 46 43 46 44 45 43 44 42 45 42 46 44 44 42 43
18 20 24 24 34 27 28 25 28 31 29 30 32 32 33 34 34 36 37 39 37 41 38 51 47 50 44 47 50 48 51 48 49 48 49 46 46 50 46 49 46 47 48 47 45 45 48
26 21 26 31 28 30 29 27 34 34 30 31 33 33 35 37 38 39 39 38 40 46 41 41 48 53 48 50 53 49 54 54 54 52 53 48 51 51 52 52 49 50 51 48 44 47 48
30 20 28 32 31 29 31 33 29 33 32 36 34 35 38 39 40 44 41 42 43 50 47 52 52 57 50 52 56 52 56 56 55 55 57 53 57 54 55 54 54 54 43 49 45 49 50
33 33 24 34 34 32 32 32 33 31 33 36 37 39 42 43 43 44 44 50 51 51 57 48 55 59 56 56 60 57 57 59 60 59 57 57 60 59 57 58 57 59 49 43 47 43 55
37 35 35 30 26 30 34 35 38 35 37 30 41 42 44 47 47 47 49 46 59 56 57 61 50 62 64 55 60 64 56 61 63 62 63 58 64 64 59 40 60 56 50 45 47 51 53
39 40 38 39 42 27 40 36 41 39 41 42 31 35 47 49 50 50 50 50 51 56 54 62 63 63 66 64 59 67 67 62 67 67 63 67 67 64 65 67 65 62 68 47 66 65 62
42 44 45 43 43 46 31 38 37 41 43 40 47 49 33 51 53 54 55 55 54 54 49 62 69 62 69 70 70 65 71 69 71 70 72 70 71 70 70 72 71 69 71 64 54 68 62
47 35 43 46 48 47 50 43 44 39 42 46 49 43 54 47 37 58 59 60 59 55 58 62 70 75 63 72 74 71 67 70 75 74 75 79 76 76 77 78 77 75 74 63 71 75 59
42 42 49 48 48 53 53 52 53 46 45 43 47 52 57 46 59 59 46 65 62 65 65 63 66 75 78 71 72 80 75 76 79 80 83 76 80 81 82 84 84 83 83 81 81 80 79
49 47 47 54 45 45 49 57 56 55 57 55 51 51 56 57 46 62 67 67 67 70 73 72 69 68 70 81 86 77 80 84 86 83 88 87 85 86 86 87 88 85 89 91 92 90 88
54 54 53 53 53 54 53 52 54 61 61 63 63 61 61 60 62 65 65 70 59 71 76 78 61 76 75 76 79 81 91 87 85 90 95 92 89 89 88 92 93 96 97 98 103 97 98
54 57 58 58 57 52 56 56 59 59 58 64 67 67 67 68 69 70 69 71 71 75 79 73 71 76 85 82 80 80 80 84 91 98 101 94 93 90 92 92 99 100 100 104 108 105 107
60 61 61 62 54 60 60 62 62 64 63 66 66 70 72 73 75 38 76 77 78 76 78 81 82 84 89 89 90 89 87 90 67 100 91 93 97 31 27 100 100 101 100 109 109 105 113
62 62 63 64 64 64 64 65 65 66 64 65 65 70 71 74 80 81 83 87 84 83 84 85 86 85 87 90 93 95 96 98 95 98 96 101 103 104 99 104 68 65 106 111 115 115 113
62 61 65 65 66 67 62 66 68 63 61 67 62 68 72 79 65 67 66 75 92 90 90 93 92 91 89 90 93 92 97 99 97 100 103 108 107 107 102 102 106 108 110 114 116 111 104
62 62 66 66 68 68 70 68 68 65 62 62 63 65 69 64 64 65 69 72 73 91 88 97 96 99 99 99 98 98 96 99 101 104 109 115 115 113 112 108 106 111 117 121 122 122 100
60 60 63 64 65 67 68 69 68 66 66 66 67 69 72 73 70 72 71 70 72 75 79 80 89 97 95 97 98 103 107 108 105 107 110 115 111 113 110 110 113 115 121 119 28 121 121
56 60 63 64 66 67 67 69 70 69 70 71 73 75 72 78 76 78 81 82 82 83 84 85 85 86 92 94 96 101 111 104 109 113 115 117 114 115 105 59 117 114 114 115 115 63 115
56 59 62 63 65 68 70 71 71 71 71 78 79 82 80 85 87 88 88 88 90 94 92 94 94 92 95 95 95 95 99 100 103 115 114 119 122 124 117 117 121 121 120 120 119 119 119
51 54 57 62 66 68 72 68 78 82 81 82 85 89 91 91 93 91 86 86 88 91 91 89 104 101 103 104 102 101 103 104 101 103 106 107 110 112 119 120 127 128 122 128 128 128 128
54 56 59 65 67 72 74 75 73 81 74 84 85 91 89 89 82 80 65 66 68 73 47 82 45 49 86 90 106 110 113 111 111 104 106 106 107 110 112 112 116 122 124 124 125 127 129
59 61 63 66 69 72 73 76 78 82 81 85 87 87 85 82 77 72 65 65 70 55 47 37 38 42 47 53 62 65 64 99 116 114 113 113 111 112 112 112 111 115 120 123 125 126 128
61 64 66 68 71 76 79 80 79 86 84 83 84 85 84 77 75 68 66 67 70 49 49 36 34 35 40 45 53 63 65 67 62 63 85 122 120 119 117 117 117 120 120 120 122 123 124
63 65 69 71 73 75 80 82 85 88 81 78 82 82 80 80 77 68 65 66 67 45 46 44 32 31 34 38 43 50 56 62 62 65 59 58 65 78 81 132 129 127 126 126 128 128 128
Wind_Direction
284 258 265 239 215 271 205 206 208 205 205 206 212 219 230 224 222 223 226 224 224 222 239 209 208 215 208 218 217 210 219 220 219 221 222 228 218 227 221 222 224 230 250 236 250 248 246
261 265 260 240 264 251 206 206 206 204 206 214 216 226 224 228 224 225 227 234 240 240 209 214 221 217 216 221 212 221 225 212 224 225 224 216 222 243 229 228 231 235 244 232 240 241 249
272 252 260 230 233 225 275 210 209 211 214 219 226 228 224 227 228 229 225 247 249 211 213 225 221 216 221 220 217 229 218 231 229 230 220 226 231 228 235 232 230 252 241 246 251 248 262
247 251 246 234 233 275 246 221 224 225 223 224 222 226 227 229 233 230 237 252 235 243 218 229 224 222 226 219 226 229 233 234 230 227 233 230 238 233 234 237 247 243 247 242 249 248 251
256 256 259 243 251 243 249 226 229 228 226 225 225 226 228 232 230 232 233 245 254 242 223 229 226 223 230 225 232 230 229 233 236 230 238 236 237 235 235 240 244 246 250 247 251 250 254
267 254 251 246 256 272 237 239 230 231 230 230 228 229 230 229 230 235 237 252 244 234 257 228 231 225 232 228 226 235 234 238 238 238 233 236 240 242 238 244 244 249 252 251 252 256 260
246 254 256 270 238 235 269 264 235 234 233 232 231 228 227 229 232 236 239 241 249 239 256 259 236 227 234 232 231 237 234 236 239 239 239 240 241 238 244 245 245 249 250 253 257 256 259
245 261 255 264 263 244 240 244 273 245 239 234 236 233 232 233 235 239 240 240 247 239 244 237 236 230 241 239 233 240 235 239 241 243 243 243 246 242 249 249 254 254 262 259 262 270 259
247 245 254 256 263 258 262 257 253 259 248 240 238 238 235 236 237 239 242 236 237 240 232 257 239 234 243 242 236 241 241 240 243 245 246 248 250 247 245 250 256 254 260 262 266 262 260
246 247 246 249 254 252 249 259 244 253 248 262 243 242 239 239 240 241 243 244 234 238 236 234 245 238 239 250 243 241 247 248 247 248 246 249 251 254 249 268 250 259 262 261 262 270 272
245 248 247 247 245 258 249 248 252 248 247 247 263 255 245 241 244 245 245 246 248 242 239 239 241 245 246 247 251 246 244 250 249 251 254 251 253 251 255 255 253 256 261 275 261 266 270
245 244 248 246 247 247 250 259 250 248 247 262 250 249 267 249 245 246 247 247 248 248 249 244 244 250 246 248 248 253 249 250 251 252 253 254 255 258 256 256 256 255 255 263 266 262 263
245 250 248 249 250 250 250 249 252 252 253 251 250 261 251 257 267 251 249 251 251 251 248 247 246 247 252 250 249 253 255 254 255 256 256 255 257 259 260 261 261 258 259 267 263 263 273
249 247 248 247 245 249 252 252 253 249 255 254 251 253 252 263 251 254 264 252 253 252 252 252 252 250 251 254 253 252 252 255 257 256 256 258 258 259 261 263 263 264 265 264 258 261 266
249 250 251 250 254 254 251 255 255 253 255 253 252 253 254 257 267 255 254 254 253 252 254 254 254 256 258 254 254 256 255 255 256 258 259 258 259 259 260 263 265 264 266 266 267 269 267
247 251 253 253 253 254 253 255 254 254 254 255 256 255 254 253 253 254 257 255 259 256 253 253 261 257 256 259 259 257 257 258 260 260 260 260 258 260 261 263 266 267 267 268 270 269 269
258 247 252 253 256 258 257 257 256 256 259 255 258 259 258 258 259 259 257 255 255 255 254 256 256 256 255 259 261 262 264 262 260 260 262 264 264 263 264 264 264 265 268 269 270 271 270
247 249 252 257 258 258 257 258 259 260 260 260 261 261 262 262 262 272 262 261 258 260 256 255 255 254 253 257 256 259 261 264 269 261 265 267 266 263 282 268 267 268 267 268 269 272 273
251 251 254 257 263 259 260 259 262 261 266 263 265 267 264 266 265 265 264 261 263 263 263 261 257 255 256 257 255 257 259 262 263 264 264 265 264 264 263 265 277 283 269 271 272 272 273
254 255 258 260 262 265 262 264 267 268 269 268 274 267 270 267 278 274 273 263 263 261 260 261 264 265 263 260 257 258 260 262 264 265 266 265 265 266 265 265 268 269 269 271 271 272 272
256 259 261 261 267 268 268 270 268 269 268 268 276 272 275 284 280 279 278 275 271 262 263 265 262 262 262 260 262 264 262 259 258 260 261 261 264 265 266 264 267 269 271 268 269 270 270
258 258 259 262 264 267 268 271 271 272 271 270 272 272 269 272 276 277 278 276 274 272 269 266 270 262 263 263 263 261 261 261 261 262 264 264 265 264 265 267 267 265 265 267 280 270 272
258 261 263 264 266 269 270 273 273 276 278 279 281 281 271 282 272 274 280 273 272 268 268 268 267 267 266 266 266 263 263 263 262 260 261 263 265 266 267 269 268 270 271 271 271 265 272
260 260 263 265 269 271 273 275 279 280 281 283 283 283 280 283 280 278 276 273 273 273 268 269 266 263 264 265 264 265 265 263 264 262 261 261 262 265 266 266 268 269 269 270 271 272 273
267 268 271 271 274 276 278 281 280 282 283 285 284 283 283 280 281 285 286 285 283 280 276 273 266 269 268 268 267 265 265 265 265 265 264 264 265 265 264 265 264 266 270 270 270 271 272
271 273 273 275 277 278 280 282 283 286 285 289 289 293 296 296 294 294 301 296 290 284 296 276 281 275 266 264 264 267 267 268 267 265 266 265 265 265 266 266 266 266 269 268 271 271 271
273 275 278 279 282 284 285 286 290 293 292 295 299 299 300 303 299 305 305 299 292 300 301 290 281 276 272 269 267 266 266 263 265 268 268 267 267 267 267 267 268 268 268 270 271 272 272
277 279 282 283 285 288 291 294 296 297 297 302 301 301 301 308 317 312 310 302 305 303 300 297 288 278 271 267 266 267 267 266 268 267 265 264 268 270 271 271 271 271 272 272 273 274 275
280 281 285 287 291 294 296 297 299 303 305 305 302 302 313 318 318 313 310 306 315 302 298 297 290 281 273 268 265 266 267 269 270 269 269 269 269 267 268 265 269 271 273 274 274 275 276